Location: Saint-Palais-sur-Mer
(45.6429°N, 1.0859°W)
Time: 21:04:34
(UTC+01:00)

Tiros 1 - Visible Passes

Search period start: 08 February 2026 00:00
Search period end: 18 February 2026 00:00
Orbit: 619 x 649 km, 48.4° (Epoch: 8 February)

Date Brightness Start Highest point End Pass type
(mag) Time Alt. Az. Time Alt. Az. Time Alt. Az.
8 Feb 8.8 19:20:39 10° W 19:24:42 32° SW 19:28:47 10° SSE visible
9 Feb 9.8 19:43:03 10° W 19:46:02 17° SW 19:49:01 10° S visible
12 Feb 10.5 19:08:16 10° SW 19:08:49 10° SW 19:09:24 10° SW visible
